Location: Santa Cristina
(46.5667°N, 11.7167°E)
Time: 05:31:25
(UTC+00:00)

Daily predictions for brighter satellites

Satellite Brightness Start Highest point End
(mag) Time Altitude Azimuth Time Altitude Azimuth Time Altitude Azimuth
COSMOS 2406 3.8 00:01:58 10° NNW 00:07:31 50° ENE 00:08:16 47° E
Cosmos 1844 4.1 00:09:36 57° NW 00:09:36 57° NW 00:14:58 10° NNE
Cosmos 1238 Rocket 4.3 00:03:17 10° N 00:09:36 59° ENE 00:10:27 55° ESE
Meteor 1-27 Rocket 3.8 00:13:49 71° NNW 00:13:49 71° NNW 00:18:59 10° N
Meteor 1-11 Rocket 4.3 00:11:41 10° NNW 00:16:35 51° WNW 00:16:35 51° WNW
BREEZE-M R/B 4.3 00:19:32 40° ENE 00:19:32 40° ENE 00:23:52 10° ENE
Cosmos 1538 Rocket 4.3 00:12:50 10° NNW 00:17:44 66° NNE 00:17:44 66° NNE
Cosmos 2341 Rocket 3.9 00:12:33 10° N 00:18:57 89° W 00:19:01 88° SSW
Cosmos 2181 Rocket 4.1 00:21:34 65° ESE 00:21:56 67° E 00:28:08 10° NNE
SJ 16-02 2.7 00:25:14 36° ENE 00:25:14 36° ENE 00:28:12 10° NNE
SL-8 Rocket 3.9 00:22:14 10° N 00:28:34 85° E 00:28:55 80° SE
Meteor 1-19 Rocket 4.3 00:46:28 66° ESE 00:46:44 67° E 00:52:13 10° NNE
Cosmos 1844 Rocket 4.1 00:46:55 26° WNW 00:47:51 27° NW 00:52:33 10° N
Meteor 2-4 Rocket 4.4 00:56:22 42° SE 00:57:44 51° E 01:03:25 10° NNE
Resurs 1-4 Rocket 1.9 00:55:37 10° NNE 01:00:56 86° ESE 01:01:06 83° SSE
USA 234 3.8 00:54:48 10° ENE 01:00:56 41° SE 01:01:54 39° SSE
Cosmos 864 Rocket 4.4 00:59:22 10° NNW 01:05:33 66° W 01:06:04 63° WSW
SL-4 R/B 2.5 01:05:32 72° N 01:05:45 74° NNE 01:10:34 10° ESE
Cosmos 2082 Rocket 2.3 01:00:22 10° NNW 01:06:01 71° ENE 01:08:14 37° SE
Cosmos 2218 Rocket 4.0 01:00:34 10° NNW 01:06:38 60° W 01:06:59 59° WSW
Cosmos 2242 Rocket 4.1 01:08:48 51° E 01:08:49 51° E 01:13:05 10° NNE
Meteor 1-18 Rocket 4.1 01:09:58 69° SSW 01:10:42 86° W 01:16:31 10° N
Cosmos 1833 Rocket 2.9 01:06:28 10° NNW 01:11:25 55° W 01:11:25 55° W
CZ-4C R/B 3.0 01:04:56 10° NW 01:12:09 81° NE 01:20:33 10° SE
Cosmos 158 Rocket 4.1 01:07:42 10° NNW 01:11:43 55° NW 01:11:43 55° NW
Cosmos 923 Rocket 3.9 01:07:33 10° NNW 01:12:48 89° WSW 01:13:16 75° SSE
Cosmos 990 Rocket 4.2 01:12:31 56° SE 01:13:04 60° ESE 01:18:13 10° NNE
Cosmos 2366 rocket 4.1 01:08:49 10° NNW 01:14:47 54° W 01:15:08 53° WSW
Helios 1B rocket 3.0 01:11:31 10° N 01:14:52 52° NNW 01:14:52 52° NNW
CZ-2D R/B 2.1 01:10:09 10° N 01:15:39 75° WNW 01:16:15 68° WSW
SL-16 R/B 2.5 01:19:17 56° SW 01:20:05 60° WSW 01:26:18 10° NNW
Cosmos 1821 Rocket 4.0 01:16:30 10° N 01:22:52 81° E 01:25:40 36° SSE
Meteor 1-28 Rocket 4.1 01:23:51 43° E 01:24:13 44° ENE 01:27:46 10° N
Cosmos 1908 Rocket 3.5 01:20:53 10° N 01:25:06 78° NW 01:25:06 78° NW
Cosmos 1937 Rocket 4.2 01:25:29 38° SE 01:26:46 46° ESE 01:31:40 10° NNE
SL-08 R/B 4.3 01:21:06 10° NNW 01:27:13 72° W 01:28:41 52° SSW
AQUA 3.6 01:22:30 10° NNE 01:27:18 84° WNW 01:27:38 76° SW
Cosmos 2278 Rocket 2.4 01:30:00 50° W 01:31:01 57° WNW 01:36:37 10° NNE
Cosmos 1943 Rocket 3.6 01:29:12 21° SSE 01:31:49 31° ESE 01:36:42 10° NE
Cosmos 2084 4.2 01:32:01 41° ESE 01:32:01 41° ESE 01:36:01 10° NE
ARIANE 5 R/B 4.3 01:27:55 10° NE 01:32:16 26° E 01:35:58 13° SE
Cosmos 1898 Rocket 3.6 01:31:54 54° S 01:33:00 72° ESE 01:38:17 10° NNE
ARGOS Delta rocket 3.8 01:29:15 10° NNE 01:33:38 63° E 01:34:19 55° SE
ADEOS II 2.1 01:28:24 10° NNE 01:33:41 77° ESE 01:35:02 51° S
Landsat 4 4.3 01:32:02 10° N 01:35:01 48° NNW 01:35:01 48° NNW
Nadezhda 3 Rocket 3.9 01:42:00 41° SSW 01:44:23 82° W 01:50:45 10° N
ATLAS 5 CENTAUR R/B 2.8 01:43:27 10° NW 01:48:21 39° WSW 01:48:21 39° WSW
CBERS-1 4.1 01:44:18 10° NNE 01:49:25 75° ESE 01:51:19 39° S
Gbstr 26 Del rocket 4.0 01:46:45 28° W 01:49:52 58° NNW 01:54:51 10° ENE
COSMOS 2406 4.4 01:46:47 10° NW 01:50:17 26° W 01:50:17 26° W
Cosmos 1703 Rocket 3.5 01:51:28 60° WSW 01:51:47 62° WNW 01:56:05 10° N
Cosmos 2112 Rocket 4.0 01:47:12 10° NNW 01:52:28 65° WSW 01:54:18 40° S
Cosmos 1782 Rocket 3.5 01:49:39 10° NNW 01:54:09 75° W 01:55:05 54° SSW
Meteor 1-29 4.3 01:53:08 10° N 01:55:24 29° NW 01:55:24 29° NW
NOSS 3-4 (A) 3.8 01:49:10 10° NW 01:56:11 90° SW 02:04:01 10° SE
NOSS 3-4 (C) 3.8 01:49:16 10° NW 01:56:18 90° ESE 02:04:08 10° SE
NPP 4.2 01:51:18 10° N 01:56:22 42° WNW 01:57:40 36° WSW
Cosmos 2369 Rocket 3.9 01:52:30 11° SSE 01:56:48 26° ESE 02:01:22 10° NE
IDEFIX/ARIANE 42P 2.9 01:51:38 10° NNE 01:56:50 63° ESE 01:59:37 27° S
IRS-1D 3.5 01:53:52 10° NNE 01:59:02 77° WNW 02:00:56 41° SSW
Cosmos 1300 Rocket 4.3 01:54:40 10° N 01:59:03 53° ENE 02:03:00 12° SSE
X-37B 1.7 02:00:54 35° ESE 02:00:54 35° ESE 02:03:08 10° E
Okean 3 3.5 01:59:32 47° S 02:00:45 83° E 02:05:04 10° N
Spot 1 3.9 01:59:50 50° S 02:00:51 74° WSW 02:05:11 10° NNW
Okean 2 Rocket 4.1 01:57:47 10° N 02:02:05 46° ENE 02:06:20 10° SSE
Cosmos 1934 Rocket 3.9 01:55:59 10° N 02:02:20 90° ESE 02:07:32 15° S
SJ 16-02 3.0 02:02:12 20° WNW 02:02:46 21° WNW 02:06:09 10° N
Cosmos 2297 3.8 02:02:44 33° SSW 02:05:24 76° ESE 02:11:08 10° NNE
Cosmos 2221 Rocket 4.3 02:07:24 20° SSE 02:10:20 52° E 02:14:45 10° NNE
Okean 1-7 3.5 02:09:59 39° W 02:10:27 40° WNW 02:14:30 10° N
ATLAS 2AS CENTAUR R/B 3.0 02:03:09 10° NW 02:10:36 74° NE 02:17:27 10° SE
USA 81 4.0 02:07:49 10° N 02:13:08 90° ENE 02:17:18 17° S
SL-08 R/B 3.6 02:10:20 10° SSE 02:15:11 69° ENE 02:20:00 10° N
CZ-4B R/B 3.6 02:12:34 10° NNE 02:17:20 68° ESE 02:20:28 22° S
Cosmos 1378 3.2 02:18:53 49° WSW 02:19:29 57° W 02:23:08 10° N
Cosmos 1766 4.0 02:16:12 10° N 02:20:08 53° ENE 02:24:03 10° SSE
IRS-1C 4.1 02:16:36 10° NNE 02:21:58 84° ESE 02:25:36 21° SSW
CZ-4C R/B 3.9 02:23:10 36° SW 02:24:15 43° W 02:28:29 10° NNW
DELTA 2 R/B (1) 4.1 02:23:20 31° SW 02:25:13 40° S 02:30:24 10° ESE
Cosmos 1605 Rocket 3.9 02:19:52 10° N 02:26:01 88° E 02:32:12 10° S
Cosmos 1680 Rocket 4.3 02:21:54 10° NW 02:26:24 29° W 02:27:04 28° WSW
ADEOS Rocket 3.3 02:21:30 15° S 02:26:46 57° W 02:33:49 10° NNW
Cosmos 489 Rocket 4.5 02:21:53 10° NNW 02:27:57 58° WSW 02:34:01 10° S
Cosmos 1733 3.2 02:26:23 10° N 02:30:11 82° E 02:33:46 11° S
ERS-1 4.4 02:33:08 10° NNE 02:38:08 89° WNW 02:42:08 16° SSW
Resurs 1-4 Rocket 3.9 02:36:55 10° NNW 02:40:03 16° WNW 02:42:11 13° W
BREEZE-M R/B 4.4 02:36:09 10° WNW 02:40:55 71° NNE 02:51:39 10° E
Cosmos 1805 3.3 02:37:25 10° NNW 02:41:18 58° W 02:44:10 17° S
USA 305 4.4 02:38:24 10° NW 02:42:25 37° NNE 02:46:25 10° E
CREW DRAGON DEMO-1 DEB 4.4 02:41:32 16° NW 02:43:04 27° N 02:45:28 10° ENE
USA 234 3.4 02:37:41 10° NE 02:44:12 72° NNW 02:49:15 18° WSW
Sich 1 Rocket 4.0 02:40:51 10° NNW 02:45:13 44° W 02:48:26 17° SSW
SL-4 R/B 3.0 02:41:12 11° WNW 02:45:16 34° SW 02:49:34 10° SSE
Cosmos 1470 4.4 02:43:36 10° N 02:47:13 36° ENE 02:50:49 10° SE
Cosmos 1378 Rocket 4.2 02:43:18 10° S 02:47:38 57° E 02:51:57 10° NNE
Cosmos 2082 Rocket 3.5 02:45:39 10° WNW 02:49:28 19° W 02:50:01 19° WSW
Cosmos 1818 4.4 02:47:04 10° NNW 02:52:29 55° NE 02:57:51 10° SE
CZ-2C R/B 3.0 02:49:36 10° NNE 02:54:19 57° E 02:59:11 10° S
CZ-2D R/B 4.2 02:52:09 10° NNW 02:54:47 14° NW 02:57:25 10° W
Cosmos 1356 Rocket 4.1 02:52:12 10° NNW 02:55:56 33° W 02:58:36 17° SSW
Cosmos 1048 Rocket 4.1 02:51:42 10° NNW 02:57:08 89° ENE 03:02:28 10° SSE
MSX 4.0 02:54:17 10° N 02:59:55 57° WNW 03:05:02 13° SW
USA 306 4.1 02:56:17 10° NW 03:00:24 42° NNE 03:04:30 10° E
CZ-4C R/B 3.7 02:54:08 10° WNW 03:00:26 29° WSW 03:07:21 10° SSW
ALOS 3.8 02:56:41 10° NNE 03:01:00 36° E 03:05:18 10° SSE
Cosmos 1674 Rocket 3.5 02:57:09 10° S 03:01:29 86° W 03:05:55 10° N
Meteor 2-20 4.5 02:55:34 10° S 03:01:42 88° W 03:07:56 10° N
Cosmos 1707 4.4 02:58:31 10° SSE 03:02:01 33° E 03:05:31 10° NNE
Cosmos 1400 Rocket 3.5 02:58:49 10° N 03:02:55 60° ENE 03:06:59 10° SSE
SL-24 R/B - RUBIN 2 4.0 02:59:41 10° NW 03:05:20 88° NE 03:10:15 10° SE
Cosmos 1459 Rocket 4.4 03:01:32 10° N 03:07:55 70° E 03:14:13 10° SSE
Cosmos 1727 Rocket 4.0 03:02:25 10° SSW 03:08:38 79° W 03:14:58 10° N
Cosmos 1726 2.9 03:06:46 10° N 03:10:28 56° E 03:14:07 10° SSE
IRAS Rocket 4.2 03:05:30 10° SSE 03:11:00 79° WSW 03:16:36 10° NNW
ARIANE 5 R/B 3.0 03:06:33 10° N 03:11:34 47° WNW 03:16:19 11° SW
ADEOS II 3.8 03:09:21 10° NNW 03:12:46 18° WNW 03:15:59 11° W
Cosmos 1943 Rocket 2.7 03:10:44 14° SW 03:15:22 47° WNW 03:20:49 10° NNE
Cosmos 2278 Rocket 4.3 03:13:34 10° WNW 03:16:24 14° NW 03:19:14 10° N
Cosmos 2344 4.5 03:08:06 10° NW 03:17:27 88° SW 03:30:36 10° SE
USA 307 3.9 03:13:52 10° NW 03:18:03 48° NNE 03:22:14 10° E
Cosmos 2263 4.4 03:12:29 10° SSW 03:18:12 81° ESE 03:24:00 10° NNE
Cosmos 494 Rocket 3.9 03:15:20 10° NNW 03:20:36 79° WSW 03:25:47 10° SSE
Cosmos 1842 3.4 03:18:11 10° SSW 03:21:59 55° WNW 03:25:48 10° N
Cosmos 44 3.5 03:17:28 10° NW 03:22:57 82° SW 03:28:13 10° SSE
Spot 4 Rocket 4.2 03:19:01 10° N 03:24:04 57° WNW 03:29:06 10° SSW
PAYLOAD A 4.0 03:19:35 10° N 03:24:42 72° WNW 03:29:35 10° SSW
GP-B 3.1 03:20:51 10° N 03:25:19 81° W 03:29:44 10° S
Cosmos 1455 Rocket 4.5 03:23:53 10° N 03:28:02 43° ENE 03:32:09 10° SSE
PSLV R/B 3.6 03:25:38 10° NNE 03:29:53 80° E 03:34:05 10° S
Cosmos 2298 Rocket 4.2 03:25:15 10° SW 03:30:29 60° WNW 03:35:46 10° NNE
USA 308 3.7 03:26:35 10° NW 03:30:49 54° NNE 03:35:02 10° ESE
CZ-2D R/B 4.5 03:31:13 10° N 03:34:51 30° WNW 03:38:32 10° SW
OE (NEXTSAT) 4.3 03:31:41 10° W 03:35:10 84° S 03:38:38 10° E
Cosmos 1833 4.2 03:29:46 10° NNW 03:35:31 80° WSW 03:41:16 10° SSE
IDEFIX/ARIANE 42P 4.0 03:32:09 10° NNW 03:35:58 21° WNW 03:39:47 10° WSW
X-37B 0.6 03:33:22 10° W 03:36:33 67° S 03:39:43 10° E
Cosmos 1953 3.9 03:33:14 10° N 03:36:59 39° ENE 03:40:43 10° SSE
Gbstr 26 Del rocket 4.2 03:32:08 10° WNW 03:37:30 48° N 03:41:52 10° E
Okean 2 3.6 03:33:48 10° SSW 03:37:51 53° WNW 03:41:58 10° N
Cosmos 2369 Rocket 2.5 03:35:02 10° SW 03:40:29 52° WNW 03:45:59 10° NNE
CZ-3B R/B 3.5 03:26:07 10° WSW 03:43:14 77° NNW 03:47:18 10° NE
CZ-2C R/B 3.3 03:40:14 10° N 03:43:48 40° WNW 03:47:24 10° SW
DNEPR-1 R/B 4.4 03:39:29 10° SW 03:45:33 60° NW 03:50:35 10° NNE
